{"data":{"norad_id":45395,"intl_designator":"2020-019AM","name":"STARLINK-1297","alt_names":[],"object_type":"PAYLOAD","status":"ACTIVE","operator":null,"country":"US","launch_date":"2020-03-18","launch_site_code":"AFETR","launch_vehicle":null,"mission":null,"orbit_class":"UNKNOWN","rcs_meters":null,"size_class":null,"mass_kg":null,"dimensions":null,"purposes":["comms"],"wikipedia_slug":null,"has_3d_model":false,"image_url":null,"decayed_at":null,"tle_current":{"epoch":"2026-05-25T04:19:03.696960Z","epoch_age_seconds":56342,"freshness":"FRESH","line1":"1 45395U 20019AM  26145.17990390  .00050799  00000+0  47953-3 0  9994","line2":"2 45395  53.0410 117.3025 0006939  15.1430 344.9791 15.66520464341364","mean_motion":15.66520464,"eccentricity":0.0006939,"inclination_deg":53.041,"raan_deg":117.3025,"arg_perigee_deg":15.143,"mean_anomaly_deg":344.9791,"bstar":0.00047953,"rev_number":34136,"period_min":91.92347199366,"perigee_km":364.18771663154,"apogee_km":373.55121220286,"semimajor_km":6747.0064644172,"source":"CELESTRAK","updated_at":"2026-05-25T13:38:16.417982Z"}}}